Regional Weather Roundup
Issued by NWS Boston, MA

Home | Current Version | Previous Version | Text Only | Print | Product List | Glossary On
Versions: 1 2 3 4 5 6 7 8 9 10 11 12 13 14 15 16 17 18 19 20 21 22 23 24 25 26 27
000
ASUS41 KBOX 282010
RWRBOX

REGIONAL WEATHER ROUNDUP
NATIONAL WEATHER SERVICE TAUNTON MA
400 PM EDT WED SEP 28 2016

NOTE:  "FAIR" INDICATES FEW OR NO CLOUDS BELOW 12,000 FEET WITH NO
SIGNIFICANT WEATHER AND/OR OBSTRUCTIONS TO VISIBILITY.

MAZALL-282100-
EASTERN MASSACHUSETTS

CITY           SKY/WX    TMP DP  RH WIND       PRES   REMARKS
BOSTON         CLOUDY    56  52  86 NE16G24   30.27R
BEVERLY        CLOUDY    57  52  83 NE13G20   30.26R
LAWRENCE       CLOUDY    56  50  80 NE14      30.31R
BEDFORD        CLOUDY    55  49  80 NE10      30.27R
BLUE HILL        N/A     52  50  93 NE20G32   30.23S
NORWOOD        CLOUDY    56  51  84 NE9G17    30.25R
MARSHFIELD     CLOUDY    57  55  94 NE10G23   30.23S FOG
PLYMOUTH       CLOUDY    57  55  93 NE17G26   30.22S FOG
TAUNTON        CLOUDY    56  54  93 VRB6G16   30.22S FOG
NEW BEDFORD    CLOUDY    58  55  90 NE12G18   30.20R FOG
$$

MAZALL-282100-
CAPE COD AND THE ISLANDS

CITY           SKY/WX    TMP DP  RH WIND       PRES   REMARKS
FALMOUTH       DRIZZLE   59  57  94 NE16G26   30.20S
HYANNIS        CLOUDY    60  57  89 NE15G25   30.17R
CHATHAM        CLOUDY    60  58  92 NE12G24   30.19R FOG
PROVINCETOWN   CLOUDY    59  56  89 NE16G26   30.22R
NANTUCKET      CLOUDY    61  58  90 NE22G31   30.15R FOG
MARTHAS VNYRD  CLOUDY    61  57  87 NE20G28   30.16S
$$

MAZALL-282100-
CENTRAL AND WESTERN MASSACHUSETTS

CITY           SKY/WX    TMP DP  RH WIND       PRES   REMARKS
WORCESTER      CLOUDY    52  48  86 NE12G23   30.25R
FITCHBURG      CLOUDY    56  48  74 NE8       30.30R
ORANGE         CLOUDY    56  51  84 NE3       30.26R
SPRINGFIELD    CLOUDY    58  50  75 E10G18    30.23R
WESTFIELD      CLOUDY    60  51  72 E8        30.23R
NORTH ADAMS    CLOUDY    60  49  66 E10G20    30.23R
PITTSFIELD     CLOUDY    56  49  77 E8        30.22R
$$

RIZALL-282100-
RHODE ISLAND

CITY           SKY/WX    TMP DP  RH WIND       PRES   REMARKS
PROVIDENCE     CLOUDY    57  52  83 NE17G29   30.23R
NEWPORT        CLOUDY    58  54  86 NE20G26   30.19R
BLOCK ISLAND   CLOUDY    60  57  89 NE17G28   30.17R
SMITHFIELD     LGT RAIN  54  51  90 NE12G22   30.25R
WESTERLY       CLOUDY    61  53  75 NE12G21   30.19R
$$

CTZALL-282100-
CONNECTICUT

CITY           SKY/WX    TMP DP  RH WIND       PRES   REMARKS
BRADLEY INTL   CLOUDY    60  50  69 NE10      30.23R
HARTFORD       CLOUDY    61  51  70 NE9       30.21R
BRIDGEPORT     CLOUDY    65  52  62 NE15      30.17R
DANBURY        CLOUDY    60  51  72 E9        30.20R
GROTON         CLOUDY    63  54  72 NE18G29   30.17R
NEW HAVEN      CLOUDY    63  52  67 NE10G22   30.18S
CHESTER        CLOUDY    59  54  82 NE13G22   30.19R
MERIDEN        CLOUDY    62  51  67 NE8G20    30.20S
WILLIMANTIC    CLOUDY    60  52  74 NE14G22   30.22R
OXFORD         CLOUDY    59  48  67 E12       30.20S
$$

MEZ002-015-021-024-NHZ003-005-008-011-012-014-VTZ005-008-282100-
NORTHERN NEW ENGLAND

CITY           SKY/WX    TMP DP  RH WIND       PRES   REMARKS
PORTLAND ME    PTSUNNY   61  48  62 NE8       30.30S
BANGOR ME      PTSUNNY   65  46  50 E9        30.33R
CONCORD NH     CLOUDY    57  47  69 NE10      30.30R
MANCHESTER NH  CLOUDY    56  47  71 E8        30.28S
NASHUA NH      CLOUDY    55  49  80 N7        30.30R
PORTSMOUTH NH  PTSUNNY   58  48  68 NE12      30.28F
JAFFREY NH     CLOUDY    53  47  79 VRB5      30.29R
KEENE NH       CLOUDY    57  50  77 NE7       30.28R
BURLINGTON VT  MOSUNNY   71  47  42 E9        30.23R
MT. WASHINGTON PTSUNNY   41  37  87 E8          N/A
$$

NYZ052-076-282100-
EASTERN NEW YORK

CITY           SKY/WX    TMP DP  RH WIND       PRES   REMARKS
ALBANY         PTSUNNY   66  51  58 E8        30.20R
NEW YORK CITY  CLOUDY    68  56  65 NE21      30.13S
$$

ANZALL-282100-
MARINE OBSERVATIONS

STATION/POSITION TIME  TEMP    WIND        PRES    VSBY  WAVE
                       AIR SEA DIR/SP/G                  HT/PER
                 (UTC) (F)     (DEG/KT/KT) (MB)    (MI)  (FT/S)
BOSTON BUOY      1950   58 62   30/ 21/ 25 1023.9R         8/ 7
BUZZARDS BAY     1900   60      30/ 28/ 32 1021.3R
NANTUCKET SOUND  1950   61 64   30/ 23/ 27 1020.8R         4/ 4
MASS BAY-STELLWA 1904   57 61   40/ 21/ 25 1024.0R  1 7/8  7/ 8
ISLE OF SHOALS   1900   55      30/ 21/ 24 1024.9R
S OF BLOCK IS    1955      65                N/A           6/ 5
$$

......................KEY.........................
  SKY/WX - SKY CONDITION/PRESENT WEATHER
  TMP    - TEMPERATURE IN FAHRENHEIT
  DWPT   - DEWPOINT IN FAHRENHEIT
  RH     - RELATIVE HUMIDITY IN PERCENT
  WIND   - DIRECTION AND SPEED IN MPH
  PRES   - MEAN SEA LEVEL PRESSURE IN INCHES OF HG
  WCI    - WIND CHILL INDEX
  VSB    - VISIBILITY IN MILES
  HX     - HEAT INDEX
  TC     - TEMPERATURE IN CELSIUS
  VRB    - VARIABLE WIND DIRECTION
  N/A    - NOT AVAILABLE




USA.gov is the U.S. government's official web portal to all federal, state and local government web resources and services.